📊 Raw Sensor Data

Showing records 47851 to 47875 of 85,092 total

ID Distance (ft) Battery V Battery A Int Temp (°F) Int Humid (%) Ext Temp (°F) Solar V RSSI SNR Time Stamp
37254 -- 3.83 0 86 38 72 5.10 -74 9 04/08/2025 03:30 PM
37253 -- 3.83 0 85 38 73 5.10 -75 9 04/08/2025 03:15 PM
37252 -- 3.83 0 84 38 72 5.10 -75 9 04/08/2025 03:00 PM
37251 -- 3.83 0 83 38 72 5.10 -75 9 04/08/2025 02:46 PM
37250 -- 3.84 0 84 37 72 5.10 -76 9 04/08/2025 02:30 PM
37249 -- 3.83 0 82 37 71 5.10 -74 8 04/08/2025 02:15 PM
37248 -- 3.85 0 81 36 69 5.10 -76 9 04/08/2025 02:00 PM
37247 -- 3.83 0 79 37 69 5.10 -76 9 04/08/2025 01:45 PM
37246 -- 3.83 0 77 37 68 5.10 -76 8 04/08/2025 01:30 PM
37245 -- 3.83 0 76 38 67 5.10 -75 9 04/08/2025 01:15 PM
37244 -- 3.83 0 75 38 67 5.10 -76 9 04/08/2025 01:00 PM
37243 -- 3.83 0 74 38 65 5.10 -75 9 04/08/2025 12:45 PM
37242 -- 3.83 0 73 39 67 5.10 -76 9 04/08/2025 12:30 PM
37241 -- 3.90 0 72 38 65 5.10 -76 8 04/08/2025 12:15 PM
37240 -- 3.83 0 72 38 66 5.10 -77 8 04/08/2025 12:00 PM
37239 -- 3.83 0 71 38 66 5.10 -76 9 04/08/2025 11:46 AM
37238 -- 3.83 0 70 38 65 5.10 -77 8 04/08/2025 11:30 AM
37237 -- 3.83 0 69 38 68 5.10 -76 9 04/08/2025 11:15 AM
37236 -- 3.83 0 68 38 69 5.10 -77 8 04/08/2025 11:00 AM
37235 -- 3.83 0 66 39 65 5.10 -76 8 04/08/2025 10:45 AM
37234 -- 3.92 0 65 38 66 5.10 -77 9 04/08/2025 10:31 AM
37233 15.7 3.83 0 63 38 63 5.10 -76 7 04/08/2025 10:15 AM
37232 -- 4.07 0 62 38 67 5.10 -78 9 04/08/2025 10:00 AM
37231 -- 3.84 0 61 38 61 5.10 -78 7 04/08/2025 09:45 AM
37230 -- 3.83 0 60 38 64 5.10 -77 8 04/08/2025 09:30 AM